JA1RBY-13 Weather Reports


time (UTC)temp
F
wind
direction
speed
knots
gust
knots
rain 1hr
in
rain 24hr
in
rain mn
in
humidity
%
barometer
mb
20260504184831 57 13 2.6 6.1 0.00 0.15 0.00 37 1014.6
20260504183333 56 45 2.6 4.3 0.00 0.17 0.00 39 1014.3
20260504181831 56 31 4.3 6.1 0.00 0.17 0.00 40 1014.0
20260504180331 56 26 2.6 4.3 0.00 0.20 0.00 41 1013.7
20260504173331 56 26 0.9 1.7 0.00 0.29 0.00 41 1013.0
20260504171832 56 31 0.9 1.7 0.00 0.30 0.00 41 1012.7
20260504170331 56 40 0.9 2.6 0.00 0.32 0.00 42 1012.2
20260504160332 58 14 5.2 9.6 0.00 0.38 0.00 42 1010.7
20260504150331 60 18 2.6 7.0 0.00 0.44 0.00 45 1009.4
20260504140331 61 46 0.9 3.5 0.00 0.44 0.44 44 1008.3
20260504130332 64 37 1.7 2.6 0.00 0.44 0.44 41 1006.7
20260504081830 73 250 14.8 17.4 0.00 0.44 0.44 35 997.4
20260504080331 74 258 12.2 15.6 0.00 0.44 0.44 35 997.3
20260504070330 76 261 16.5 24.3 0.00 0.44 0.44 33 996.4
20260504050330 81 272 13.9 23.5 0.00 0.44 0.44 41 996.1
20260504044830 82 242 13.0 19.1 0.00 0.44 0.44 40 996.2
20260504043331 83 265 6.1 10.4 0.00 0.44 0.44 40 996.2
20260504041830 83 262 11.3 20.9 0.00 0.44 0.44 39 996.2
20260504040330 83 244 14.8 19.1 0.00 0.44 0.44 38 996.2
20260504034831 83 254 13.9 18.2 0.00 0.44 0.44 38 996.1
20260504033330 82 257 11.3 15.6 0.00 0.44 0.44 40 996.2
20260504030330 85 258 10.4 16.5 0.00 0.44 0.44 40 996.4
20260504024830 85 248 10.4 19.1 0.00 0.44 0.44 39 996.7
20260504023331 84 266 4.3 10.4 0.00 0.44 0.44 42 996.9
20260504021830 84 249 7.8 16.5 0.00 0.44 0.44 43 997.0
20260504020329 83 267 9.6 14.8 0.00 0.44 0.44 44 997.3
20260504014831 83 276 7.0 9.6 0.00 0.44 0.44 46 997.3
20260504013331 83 242 8.7 14.8 0.00 0.44 0.44 46 997.4
20260504010330 81 263 9.6 13.9 0.00 0.44 0.44 50 997.3
20260504004830 82 251 10.4 17.4 0.00 0.44 0.44 50 997.2
20260504001830 81 272 10.4 25.2 0.00 0.44 0.44 53 996.9
20260504000330 81 266 8.7 14.8 0.00 0.44 0.44 54 996.9
20260503234829 78 244 14.8 26.1 0.00 0.44 0.44 57 996.6
20260503230330 74 235 13.9 18.2 0.00 0.44 0.44 62 996.5
20260503224829 73 256 14.8 20.0 0.00 0.44 0.44 65 996.8
20260503223331 72 254 15.6 20.0 0.00 0.44 0.44 67 996.4
20260503221830 72 219 13.0 20.9 0.00 0.44 0.44 69 996.2
20260503214830 74 275 19.1 26.9 0.00 0.44 0.44 70 996.5
20260503211829 71 247 21.7 26.9 0.02 0.44 0.44 83 996.9
20260503210331 69 252 16.5 22.6 0.04 0.44 0.44 86 997.4
20260503204830 69 238 13.9 20.0 0.09 0.44 0.44 86 997.3
20260503203331 68 236 12.2 18.2 0.10 0.43 0.43 86 997.8
20260503201830 67 219 6.1 11.3 0.13 0.43 0.43 85 998.0
20260503200331 67 176 5.2 9.6 0.10 0.40 0.40 84 998.5
20260503194830 67 226 9.6 13.9 0.06 0.35 0.35 84 997.7
20260503191829 67 235 16.5 22.6 0.03 0.30 0.30 84 998.1
20260503190331 66 223 12.2 14.8 0.06 0.30 0.30 83 997.9